Regional Weather Roundup
Issued by NWS Kansas City/Pleasant Hill, MO

Home | Current Version | Previous Version | Graphics & Text | Print | Product List | Glossary Off
Versions: 1 2 3 4 5 6 7 8 9 10 11 12 13 14 15 16 17 18 19 20 21 22 23 24 25 26 27 28 29 30 31 32 33 34 35 36 37 38 39 40 41 42 43 44 45 46 47 48 49 50

402
ASUS43 KEAX 260610
RWREAX

WEATHER ROUNDUP FOR EASTERN KANSAS AND NORTHWEST MISSOURI
NATIONAL WEATHER SERVICE KANSAS CITY/PLEASANT HILL MO
1200 AM CST SUN FEB 26 2017

KSZ040-057-103>105-MOZ028-029-037-043-260700-
...KANSAS CITY METROPOLITAN AREA...

CITY           SKY/WX    TMP DP  RH WIND       PRES   REMARKS
K.C. INTL      CLEAR     31  14  49 S12       29.98F WCI  22
6HR MIN TEMP:  26; 6HR MAX TEMP:  35;

K.C. DOWNTOWN  CLEAR     36  11  35 S8        30.00F WCI  30
6HR MIN TEMP:  34; 6HR MAX TEMP:  40;

LEES SUMMIT    CLEAR     33  13  43 S12       30.01F WCI  24
6HR MIN TEMP:  33; 6HR MAX TEMP:  38;

OLATHE - IXD   CLEAR     29  13  51 S9        30.01F WCI  20
6HR MIN TEMP:  28; 6HR MAX TEMP:  39;

OLATHE - OJC   CLEAR     31  13  47 S7        30.00F WCI  24
6HR MIN TEMP:  30; 6HR MAX TEMP:  38;

LAWRENCE       CLEAR     27  14  58 E6        30.00F WCI  20

$$

MOZ001>008-011>017-020>025-030>033-038>040-044>046-053-054-260700-
...NORTHERN AND CENTRAL MISSOURI...

CITY           SKY/WX    TMP DP  RH WIND       PRES   REMARKS
ST. JOSEPH     CLOUDY    33  17  51 S9        29.98F WCI  25
6HR MIN TEMP:  29; 6HR MAX TEMP:  37;

MOSBY            N/A     32  12  43 SE5       30.01F WCI  27
WARRENSBURG    CLEAR     32  18  55 S6        30.04F WCI  26
WHITEMAN AFB   PTCLDY    31  15  51 S13       30.03F WCI  21
6HR MIN TEMP:  29; 6HR MAX TEMP:  37;

CLINTON        CLEAR     28  16  59 CALM      30.07F
SEDALIA        CLOUDY    31  15  52 S10       30.06F WCI  22
6HR MIN TEMP:  28; 6HR MAX TEMP:  40;

WARSAW         NOT AVBL
CHILLICOTHE      N/A     30  12  47 SE5       30.03F WCI  25
6HR MIN TEMP:  25; 6HR MAX TEMP:  36;

KIRKSVILLE     PTCLDY    23  14  68 S8        30.03F WCI  14
6HR MIN TEMP:  22; 6HR MAX TEMP:  33;


$$

MOZ041-047>049-056>058-063>065-088>090-097-260700-
...EASTERN AND SOUTHERN MISSOURI...

CITY           SKY/WX    TMP DP  RH WIND       PRES   REMARKS
ST. LOUIS INTL CLEAR     31  16  54 CALM      30.13S
6HR MIN TEMP:  29; 6HR MAX TEMP:  37;

SPIRIT OF STL  CLEAR     23  16  74 CALM      30.13S
COLUMBIA       PTCLDY    28  12  51 S7        30.08F WCI  21
JEFFERSON CITY CLEAR     26  16  65 SE5       30.11F WCI  20
ROLLA          CLEAR     28  12  51 SE9       30.08F WCI  19
OSAGE BEACH    CLEAR     25  15  66 SE3       30.11F
SPRINGFIELD    CLEAR     25  17  72 S5        30.07F WCI  19
BRANSON        CLOUDY    32  12  43 CALM      30.10S
JOPLIN         CLEAR     32  15  49 SE7       30.08F WCI  26
WEST PLAINS    CLEAR     26  17  68 CALM      30.11F

$$

IAZ060-094-KSZ022-034>040-054-083-096-NEZ052-066-093-260700-
...KANSAS...SOUTHEAST NEBRASKA AND IOWA...

CITY           SKY/WX    TMP DP  RH WIND       PRES   REMARKS
TOPEKA         CLEAR     33  16  49 VRB6      29.98F WCI  28
6HR MIN TEMP:  33; 6HR MAX TEMP:  42;

MANHATTAN      CLEAR     33  18  53 SW9       29.96S WCI  25
EMPORIA        CLEAR     30  16  56 S14       29.98F WCI  19
CHANUTE        CLEAR     28  14  55 SE6       30.05S WCI  22
WICHITA        PTCLDY    30  20  66 SE8       29.98F WCI  22
OMAHA          MOCLDY    31  21  66 S7        29.89F WCI  24
LINCOLN        PTCLDY    32  28  85 SW8       29.90F WCI  25
FALLS CITY     CLOUDY    34  18  52 S9        29.94F WCI  27
LAMONI         CLOUDY    31  15  52 S13       29.95F WCI  21
DES MOINES     PTCLDY    30  19  63 S9        29.92F WCI  22

$$





USA.gov is the U.S. government's official web portal to all federal, state and local government web resources and services.